Simultaneous Nadir Overpasses (SNOs) Predictions

Prediction of SNOs between METOP-C and LANDSAT-8 Satellite Orbit:

Table of predicted SNOs for the next 14.0 days since TLE Epoch: 5/14/2022
Index Date (METOP-C) Time (METOP-C) Lat,Lon (METOP-C) SZA (METOP-C ) Date (LANDSAT-8) Time (LANDSAT-8) Lat,Lon (LANDSAT-8) SZA (LANDSAT-8 ) Distance(km) Time Diff (sec)
1 05/16/2022 20:29:57 81.17, -86.59 64.26 05/16/2022 20:30:01 81.18, -86.62 64.26 0.75 4
2 05/16/2022 21:20:37 -81.17, 80.81 115.74 05/16/2022 21:19:28 -81.17, 80.95 115.76 2.40 69
3 05/19/2022 15:13:42 -81.09, 170.15 116.66 05/19/2022 15:14:56 -81.05, 170.23 116.65 4.54 74
4 05/19/2022 16:04:17 81.17, -20.21 63.64 05/19/2022 16:04:17 81.17, -20.25 63.64 0.63 0
5 05/19/2022 16:54:56 -81.19, 147.64 116.30 05/19/2022 16:53:43 -81.19, 147.72 116.32 1.48 73
6 05/22/2022 10:47:56 -81.16,-121.57 116.99 05/22/2022 10:49:06 -81.16,-121.68 116.97 1.83 70
7 05/22/2022 11:38:36 81.17, 46.11 63.05 05/22/2022 11:38:32 81.16, 46.01 63.04 1.92 4
8 05/25/2022 06:22:17 -81.14, -55.60 117.58 05/25/2022 06:23:22 -81.14, -55.51 117.54 1.39 65
9 05/25/2022 07:12:56 81.16, 112.38 62.50 05/25/2022 07:12:47 81.17, 112.51 62.51 2.24 9
10 05/28/2022 01:56:37 -81.14, 10.71 118.08 05/28/2022 01:57:37 -81.14, 10.89 118.03 3.24 60



Historial Predications of SNOs between METOP-C and LANDSAT-8
